Mineral Wells, TX

6:31 PM CST on December 08, 2016 (GMT -0600)
Mineral Wells

Weather History for KMWL - October, 2012

Change the Weather History Date:

Tuesday, October 9, 2012

  Actual Average Record
Temperature  
Mean Temperature 67 °F -  
Max Temperature 84 °F 78 °F 93 °F (2014)
Min Temperature 50 °F 55 °F 41 °F (2000)
Cooling Degree Days 2    
Growing Degree Days 17 (Base 50)    
Moisture  
Dew Point 55 °F    
Average Humidity 70    
Maximum Humidity 89    
Minimum Humidity 43    
Precipitation  
Precipitation 0.00 in - - ()
Sea Level Pressure  
Sea Level Pressure 29.91 in    
Wind  
Wind Speed 10 mph (South)    
Max Wind Speed 18 mph    
Max Gust Speed 28 mph    
Visibility 10 miles    
Events      
Averages and records for this station are not official NWS values.
T = Trace of Precipitation, MM = Missing Value Source: NWS Daily Summary

Daily Weather History Graph

Daily Weather History Graph

Search for Another Location

Airport or City:

Trip Planner

Search our weather history database for the weather conditions in past years. The results will help you decide how hot, cold, wet, or windy it might be!

Date:

Astronomy

Oct. 09, 2012 Rise Set
Actual Time 7:32 AM CDT 7:05 PM CDT
Civil Twilight 7:07 AM CDT 7:30 PM CDT
Nautical Twilight 6:39 AM CDT 7:59 PM CDT
Astronomical Twilight 6:10 AM CDT 8:27 PM CDT
Moon 1:29 AM CDT 3:16 PM CDT
Length of Visible Light 12h 22m
Length of Day
11h 33m
Last Quarter, 36% of the Moon is Illuminated
Oct 9
Last Quarter
Oct 15
New
Oct 21
First Quarter
Oct 29
Full
Nov 6
Last Quarter

Hourly Weather History & Observations

Time (CDT) Temp. Heat Index Dew Point Humidity Pressure Visibility Wind Dir Wind Speed Gust Speed Precip Events Conditions
12:53 AM 50.0 °F - 45.0 °F 83% 30.01 in 10.0 mi North - - N/A   Clear
1:53 AM 50.0 °F - 46.0 °F 86% 29.99 in 10.0 mi North - - N/A   Clear
2:53 AM 50.0 °F - 46.4 °F 87% 29.99 in 10.0 mi North - - N/A   Clear
3:53 AM 51.1 °F - 46.9 °F 86% 29.94 in 10.0 mi North - - N/A   Clear
4:53 AM 51.1 °F - 48.0 °F 89% 29.94 in 10.0 mi North - - N/A   Clear
5:53 AM 51.1 °F - 48.0 °F 89% 29.96 in 10.0 mi North - - N/A   Clear
6:53 AM 52.0 °F - 48.9 °F 89% 29.96 in 10.0 mi North - - N/A   Clear
7:30 AM 53.6 °F - 50.0 °F 88% 29.97 in 10.0 mi SE 8.1 mph - N/A   Mostly Cloudy
7:53 AM 55.0 °F - 51.1 °F 86% 29.96 in 10.0 mi SSE 9.2 mph - N/A   Overcast
8:53 AM 57.9 °F - 52.0 °F 81% 29.96 in 10.0 mi SE 12.7 mph - N/A   Overcast
9:53 AM 62.1 °F - 53.1 °F 72% 29.96 in 10.0 mi SSE 12.7 mph - N/A   Overcast
10:53 AM 66.0 °F - 55.0 °F 68% 29.95 in 10.0 mi South 11.5 mph - N/A   Overcast
11:53 AM 73.0 °F - 57.9 °F 59% 29.92 in 10.0 mi South 18.4 mph 27.6 mph N/A   Mostly Cloudy
12:04 PM 73.4 °F - 57.2 °F 57% 29.94 in 10.0 mi South 18.4 mph 26.5 mph N/A   Partly Cloudy
12:53 PM 75.9 °F - 59.0 °F 56% 29.89 in 10.0 mi SSW 13.8 mph 21.9 mph N/A   Clear
1:53 PM 79.0 °F - 60.1 °F 52% 29.86 in 10.0 mi South 11.5 mph 23.0 mph N/A   Clear
2:53 PM 82.0 °F 82.4 °F 60.1 °F 47% 29.82 in 10.0 mi SSW 18.4 mph 25.3 mph N/A   Clear
3:53 PM 84.0 °F 84.4 °F 61.0 °F 46% 29.81 in 10.0 mi South 15.0 mph 21.9 mph N/A   Clear
4:53 PM 84.9 °F 84.8 °F 60.1 °F 43% 29.80 in 10.0 mi South 12.7 mph 20.7 mph N/A   Clear
5:53 PM 84.0 °F 84.0 °F 60.1 °F 44% 29.80 in 10.0 mi SW 8.1 mph - N/A   Clear
6:53 PM 80.1 °F 80.9 °F 60.1 °F 50% 29.82 in 10.0 mi SSW 3.5 mph - N/A   Clear
7:53 PM 75.9 °F - 60.1 °F 58% 29.83 in 10.0 mi South 8.1 mph - N/A   Clear
8:53 PM 70.0 °F - 60.1 °F 71% 29.87 in 10.0 mi Calm Calm - N/A   Clear
9:53 PM 68.0 °F - 60.1 °F 76% 29.90 in 10.0 mi East 4.6 mph - N/A   Clear
10:53 PM 66.9 °F - 60.1 °F 79% 29.92 in 10.0 mi Calm Calm - N/A   Clear
11:53 PM 66.0 °F - 61.0 °F 84% 29.92 in 10.0 mi SE 6.9 mph - N/A   Clear